Wind_Speed
17 16 15 14 14 13 14 16 17 19 19 19 19 19 19 20 19 17 17 18 18 17 17 15 14 15 16 18 19 20 21 21 21 22 22 23 23 22 22 23 23 23 23 23 23 22 22 21 21 21 21 21 21 21 21 22 22 22 21 21 22 22 22 23 23 22 20 18 18 19 21 23 22 21 22 22 21 20 20 20 18 17 17 16 16
17 17 17 15 14 14 15 16 17 19 20 18 18 18 18 19 20 19 17 17 16 15 15 15 15 16 16 17 18 19 19 20 21 22 21 21 23 23 23 23 23 23 23 23 23 22 22 22 22 22 22 22 22 21 21 21 21 21 21 21 22 22 21 22 22 22 21 19 18 18 19 22 24 23 22 24 25 23 22 22 21 18 17 16 17
19 18 18 16 15 16 17 17 18 19 20 19 18 17 18 19 21 20 18 16 15 14 15 15 15 16 15 16 18 19 19 19 20 22 22 22 23 23 23 23 23 24 24 23 23 23 24 24 23 23 22 23 22 22 21 21 21 21 20 20 21 21 21 23 23 24 23 21 20 19 19 21 23 24 24 26 28 28 27 27 28 26 22 18 17
21 19 19 17 17 18 19 19 19 19 20 20 19 18 19 20 20 20 20 18 17 16 17 17 16 15 14 14 17 18 20 20 21 22 22 22 24 23 23 23 23 24 23 23 24 23 24 25 25 24 23 24 24 23 22 22 22 22 21 21 21 21 22 24 26 26 24 23 22 22 22 22 23 25 27 29 30 30 30 29 30 31 29 24 20
23 21 20 19 18 20 20 19 20 21 21 20 19 19 21 21 19 21 21 20 18 18 18 18 18 15 13 14 15 16 19 22 24 24 22 22 24 25 25 25 25 26 25 24 24 24 25 25 25 25 25 25 25 24 23 23 23 23 23 23 24 24 24 26 27 27 26 25 25 24 24 25 24 25 27 30 31 31 31 29 28 28 28 27 25
26 24 22 20 19 20 21 22 22 20 19 19 19 21 24 23 21 22 21 18 18 17 17 17 17 14 13 14 14 15 17 21 25 26 26 25 25 25 25 26 26 27 27 26 26 27 27 26 25 25 26 26 26 25 25 24 24 24 23 24 25 26 26 27 27 28 28 28 28 28 27 27 27 26 27 29 31 31 31 31 30 29 27 28 28
25 22 20 18 18 19 20 23 22 17 15 16 19 22 23 23 22 21 18 16 16 15 15 15 14 12 12 13 14 15 16 18 22 25 27 28 28 27 27 27 27 27 27 26 26 28 29 29 28 28 27 27 27 26 26 26 25 24 24 25 26 27 27 27 28 28 28 29 30 31 29 29 29 29 29 29 31 32 32 32 32 31 29 28 27
18 15 13 15 16 18 20 22 22 20 18 16 16 18 19 20 21 19 15 13 14 13 13 14 13 13 13 14 15 15 16 16 17 19 22 26 29 30 31 30 29 29 29 28 28 28 29 30 31 32 29 26 25 25 25 25 26 25 25 26 27 27 28 29 29 29 29 30 31 32 31 32 32 32 31 30 31 32 32 32 32 31 30 29 27
14 13 14 15 17 18 19 19 21 21 19 16 16 16 17 17 17 15 13 12 13 13 14 14 14 14 14 15 16 16 16 16 15 15 16 20 24 28 29 31 31 31 31 31 31 30 30 29 30 32 31 26 24 24 24 25 25 25 25 26 27 28 29 29 31 31 32 33 33 33 34 34 34 34 32 31 30 30 31 32 31 31 32 30 28
17 16 15 15 16 16 15 14 16 16 15 15 16 15 14 13 13 13 11 10 10 11 11 12 13 14 14 15 16 16 16 16 15 14 14 16 19 21 23 26 28 29 30 30 30 31 31 29 28 30 33 31 27 26 25 24 24 24 25 26 27 28 29 30 31 32 33 35 34 34 35 34 33 33 32 31 30 29 30 31 31 32 34 33 30
17 16 14 14 13 13 11 10 11 11 10 10 12 11 10 11 12 12 11 9 8 9 10 10 11 11 12 12 13 14 14 15 14 13 13 14 16 17 18 19 21 24 25 26 27 28 30 30 29 29 31 31 28 26 25 24 24 24 25 25 25 27 29 30 31 32 33 34 34 33 34 33 31 31 31 32 33 31 29 29 31 34 36 34 31
13 12 10 9 8 7 6 5 6 6 5 6 8 9 9 10 11 11 10 9 9 10 10 10 10 10 10 11 11 12 13 13 13 13 14 15 16 17 17 17 18 20 22 24 25 26 28 29 28 27 27 28 26 25 26 27 26 26 26 26 26 27 28 30 31 32 32 33 34 32 31 31 30 31 33 33 34 33 30 29 30 30 31 31 30
6 5 4 4 4 4 2 2 3 3 3 4 5 5 6 8 9 9 10 10 12 13 12 11 10 11 11 12 12 12 13 12 11 13 15 16 17 18 17 17 18 18 20 22 23 24 25 25 24 24 25 27 27 27 27 28 28 29 29 28 27 27 28 29 30 31 32 33 33 31 31 32 31 32 35 34 33 32 31 31 31 28 25 24 24
1 1 2 3 2 1 2 4 5 4 3 3 4 5 5 5 7 9 11 12 13 13 13 13 13 13 14 14 14 13 13 13 11 11 14 16 16 17 16 16 16 16 17 19 20 20 20 19 20 21 21 23 25 26 26 26 28 31 30 27 26 26 26 28 28 30 33 33 32 31 31 33 33 34 35 32 31 30 28 29 31 29 25 22 21
1 2 2 2 2 2 4 5 4 4 3 3 3 4 4 6 8 10 11 11 11 11 12 13 13 14 14 15 14 13 12 13 12 12 13 14 15 15 15 15 15 15 15 16 17 17 18 18 17 17 18 19 21 22 23 24 26 29 28 27 27 26 25 27 29 31 32 33 32 31 32 33 33 35 34 31 30 29 25 23 26 27 25 25 25
1 1 1 0 1 2 4 5 4 3 3 3 4 4 5 6 7 8 9 10 10 10 11 12 13 13 13 13 13 11 11 12 12 12 13 14 15 15 15 15 15 16 16 17 17 16 17 17 16 15 16 18 19 19 21 22 23 24 25 25 26 26 26 27 29 31 31 31 32 32 32 33 32 33 35 33 30 29 25 23 23 23 22 23 25
2 2 2 2 3 3 4 4 4 3 3 2 2 2 3 4 6 7 8 8 8 9 10 11 11 10 10 11 10 10 11 12 11 10 11 12 13 14 14 13 14 15 15 15 16 15 15 16 16 16 18 19 19 19 19 20 20 21 23 24 25 26 26 27 28 30 30 31 31 31 32 33 32 31 33 32 31 30 27 25 25 24 21 21 23
4 5 5 5 5 5 4 4 4 4 3 2 1 0 1 3 5 5 6 7 8 9 9 10 10 10 10 10 9 10 12 12 11 10 11 12 12 12 13 12 12 13 13 14 14 14 13 14 15 16 17 17 17 16 17 18 19 20 22 23 24 24 25 25 26 27 27 28 29 29 29 30 29 28 28 27 26 26 24 23 23 23 21 21 21
6 6 6 6 7 6 6 5 6 6 4 2 1 1 1 2 4 5 6 6 7 8 8 9 10 9 9 9 9 10 12 12 11 12 12 13 13 13 13 13 12 13 13 14 14 14 13 13 14 14 14 15 14 15 16 17 19 20 21 21 22 21 21 21 22 22 23 23 24 24 25 25 25 24 23 22 20 19 18 18 19 20 19 19 20
7 7 8 8 8 7 7 6 5 5 3 2 1 1 1 0 1 2 3 4 5 6 8 9 9 7 7 8 9 10 11 12 12 13 13 14 14 14 15 14 13 14 14 14 15 15 15 14 14 14 15 16 16 16 16 17 17 18 19 19 19 19 18 19 19 20 20 21 21 21 21 21 21 21 20 20 19 17 16 17 17 19 19 19 19
8 8 9 10 9 8 7 6 5 4 4 4 3 3 2 1 1 1 2 3 4 6 8 9 9 8 8 8 10 11 12 12 14 14 14 14 14 15 15 15 14 15 15 16 16 17 15 14 14 15 15 16 16 16 16 16 17 17 18 18 18 19 18 18 19 19 20 20 20 20 20 20 21 21 21 21 20 19 18 18 19 20 20 21 21
10 10 10 10 10 9 7 6 6 5 5 4 3 2 2 2 2 2 2 3 4 6 7 9 9 10 10 11 12 12 11 13 15 15 15 15 15 15 16 15 15 15 15 15 16 16 15 13 13 13 14 14 15 15 16 17 17 18 19 19 19 20 20 20 20 21 21 21 22 22 22 22 22 21 21 21 21 20 20 20 21 21 21 22 23
12 11 10 9 9 8 7 7 6 6 5 4 4 3 2 3 3 4 4 5 5 6 7 8 9 10 10 11 12 11 10 11 13 14 15 15 16 16 16 16 15 14 14 14 14 14 14 13 13 13 14 14 15 16 17 18 18 19 19 20 20 21 21 22 22 22 23 23 23 24 24 23 23 22 21 20 20 20 20 21 21 22 22 23 24
11 10 9 8 8 7 8 8 8 7 7 6 5 4 4 4 4 5 6 6 7 7 7 8 8 9 10 11 12 12 11 11 12 13 13 14 15 15 16 16 16 15 14 13 13 13 14 14 14 14 15 16 16 17 18 18 18 19 20 20 20 21 21 22 23 23 23 23 24 25 25 24 24 23 22 21 20 19 20 20 21 22 23 24 25
9 8 7 7 6 5 6 7 7 7 6 6 6 5 5 5 5 6 7 8 9 10 10 10 10 10 11 12 13 14 14 13 13 13 14 14 14 15 15 16 17 17 17 16 15 15 15 15 16 16 17 17 18 19 19 19 19 21 22 22 22 22 23 23 23 23 23 24 25 25 25 25 25 24 23 21 20 20 20 21 22 23 24 25 26
5 5 5 5 5 5 5 6 6 6 5 5 5 5 5 6 6 7 9 10 10 10 11 11 11 12 12 13 13 15 16 16 15 15 15 14 14 15 15 16 17 17 18 18 18 18 18 18 19 19 20 21 21 21 22 22 23 24 25 25 25 25 25 25 25 23 23 24 25 25 26 26 25 24 23 22 21 21 21 22 23 25 26 26 26
2 3 4 5 6 6 6 6 7 7 6 5 5 4 5 6 7 8 10 11 12 12 12 12 13 14 14 13 14 15 17 18 18 18 18 17 16 17 17 17 17 18 19 19 20 20 21 21 22 23 24 24 25 25 26 27 28 29 29 29 28 28 27 27 26 24 23 23 24 25 25 26 25 25 24 23 22 22 22 24 25 26 27 27 26
3 3 4 5 7 7 7 7 7 7 8 8 7 6 6 8 9 10 11 13 14 14 15 15 15 16 17 16 16 18 20 20 20 21 21 20 20 20 19 19 19 19 19 19 20 20 21 22 22 23 25 26 26 27 29 30 31 32 31 30 29 29 28 29 28 25 23 23 23 24 24 24 24 24 24 23 23 23 23 24 25 26 28 28 27
3 5 5 6 6 6 7 7 6 6 7 8 7 7 8 10 11 12 13 14 14 16 17 17 17 18 19 18 17 20 22 21 21 21 21 21 20 21 21 21 21 21 21 20 20 20 20 21 21 22 24 25 25 26 27 29 30 30 29 28 28 28 28 29 28 26 23 23 24 25 24 24 24 24 24 23 23 24 24 24 25 26 27 28 28
4 6 7 7 6 6 8 8 7 5 6 7 7 8 10 11 13 13 14 15 16 16 18 19 19 20 21 20 19 20 21 21 21 20 20 20 21 21 21 22 22 22 23 22 22 22 22 22 22 22 23 24 24 24 25 26 27 27 27 26 25 25 27 29 29 28 26 25 26 27 27 26 26 25 25 24 24 24 25 25 25 25 26 28 28
7 7 8 9 9 8 8 9 9 8 9 9 9 10 11 12 14 15 15 16 17 18 18 19 19 20 21 21 21 21 21 21 21 21 20 20 20 21 21 22 22 22 22 22 23 23 23 23 23 23 23 23 24 24 24 24 25 25 25 24 22 23 25 26 27 28 28 27 27 28 28 28 28 27 26 25 24 24 24 25 25 25 25 26 27
9 9 9 10 11 10 10 11 11 11 11 12 11 12 14 15 16 16 17 17 18 19 20 20 20 20 21 21 21 21 21 21 21 21 21 21 21 21 21 21 21 22 21 21 21 21 21 21 22 22 22 22 22 23 23 23 23 23 23 23 22 23 24 24 24 25 26 25 26 27 28 28 28 27 27 26 25 24 24 24 24 24 24 25 25
10 9 9 10 11 11 12 13 13 13 12 12 13 15 17 18 18 18 18 19 20 20 20 20 20 20 20 20 20 20 21 22 22 22 22 22 22 22 22 22 22 22 22 22 21 21 20 20 20 20 21 20 20 21 21 20 21 22 22 22 22 23 24 24 23 23 23 22 24 26 26 27 27 27 26 27 26 25 23 23 23 24 23 23 23
11 11 11 11 11 12 12 13 14 15 14 14 15 17 17 18 19 19 20 21 21 21 20 20 20 20 20 19 20 20 21 22 22 22 22 22 21 21 22 22 23 23 23 23 23 22 20 19 19 19 19 19 18 19 19 19 20 20 20 20 21 22 23 23 23 23 22 22 22 24 24 25 25 25 24 24 24 24 22 21 20 21 21 22 21
13 13 12 12 12 13 13 14 15 16 16 16 17 18 18 18 19 20 21 22 22 20 20 20 21 21 21 20 20 20 21 22 22 21 21 21 21 20 21 22 23 23 23 23 22 21 21 20 19 18 18 17 17 17 18 17 18 18 19 20 20 21 21 20 21 23 23 22 22 22 23 23 22 22 21 21 21 22 21 19 17 17 18 19 19
14 14 14 14 14 14 15 16 17 17 18 18 19 18 18 19 19 20 21 22 21 20 19 20 21 21 21 21 21 21 21 21 21 22 22 21 20 20 20 21 22 22 22 21 21 20 20 19 19 19 18 18 17 17 17 17 17 17 18 19 20 20 20 19 20 22 22 22 22 22 22 22 21 20 20 20 19 18 19 20 19 17 17 18 19
16 16 16 17 17 17 17 17 18 19 19 19 19 18 18 19 19 20 20 20 20 19 19 20 21 21 20 20 20 20 21 21 22 22 21 20 20 19 19 20 20 20 20 20 21 21 20 20 20 20 19 19 19 19 19 19 18 18 19 19 20 21 21 21 21 22 21 21 21 21 21 21 21 21 20 20 18 15 15 18 20 20 20 20 21
18 18 18 18 18 18 18 19 19 20 20 20 19 18 18 18 19 19 19 19 19 19 19 19 20 21 20 20 19 19 20 21 21 21 20 20 19 19 19 19 19 19 19 20 20 20 21 21 21 21 21 21 22 23 22 21 20 20 20 21 21 21 22 21 22 23 23 22 22 21 21 21 21 20 20 20 20 18 17 18 20 23 23 23 25
19 19 19 19 19 20 20 20 20 20 20 20 19 19 18 18 18 18 18 18 19 20 21 20 20 20 20 20 19 19 20 20 20 20 20 20 20 20 20 20 20 20 20 20 20 21 21 21 22 22 23 23 24 24 24 23 23 23 23 23 23 23 23 23 23 24 25 24 23 23 22 22 22 20 20 21 22 21 21 21 22 24 25 26 27
20 20 20 21 21 21 22 22 21 21 21 20 19 19 18 18 19 19 19 19 20 21 21 21 21 20 20 20 20 20 21 21 21 22 22 22 23 23 23 23 23 23 23 23 23 23 24 24 24 24 24 24 24 24 24 23 23 24 24 25 25 25 26 25 24 24 25 25 25 26 26 25 24 23 22 23 24 23 23 23 24 24 25 25 25
22 22 22 23 23 22 22 21 21 21 21 20 19 19 19 19 20 20 21 21 21 21 22 22 20 19 20 21 22 23 24 24 24 25 25 25 25 25 25 25 25 25 25 24 24 26 27 27 26 26 26 25 25 25 25 24 25 26 26 27 27 27 27 27 26 26 26 25 26 26 27 27 28 27 26 26 26 25 25 25 25 25 25 26 25
23 23 23 23 23 22 21 21 21 21 21 21 20 19 19 20 20 21 21 21 20 21 22 22 22 21 21 22 23 25 26 26 25 26 26 26 26 26 26 26 26 27 27 26 26 27 28 28 27 27 27 27 27 27 26 27 27 28 29 29 29 29 28 27 27 27 27 26 26 26 27 28 30 30 29 28 28 27 27 27 26 26 25 25 25
22 22 21 21 21 21 21 21 21 21 20 20 19 19 20 20 20 21 21 21 21 22 23 23 24 24 24 23 24 25 26 26 26 26 27 27 27 27 27 27 27 28 28 28 27 28 28 28 28 28 28 27 27 27 28 28 28 29 30 30 30 29 29 28 28 28 28 28 28 28 27 28 29 30 29 29 29 29 28 27 27 25 24 24 24
20 20 20 20 20 20 20 20 20 20 20 20 19 20 20 21 21 22 22 22 22 23 23 24 24 25 25 25 25 25 26 26 27 27 27 27 27 27 27 27 28 28 28 28 28 29 29 29 29 29 29 29 28 28 29 29 29 29 29 29 29 30 30 30 30 30 29 29 29 28 28 28 29 28 28 28 28 28 27 27 26 26 25 25 25
20 20 20 19 18 18 18 18 19 19 20 20 21 21 21 21 21 22 22 22 22 23 23 24 24 24 24 24 24 25 25 26 26 27 27 27 27 26 26 26 27 28 28 28 28 29 29 29 29 30 30 29 29 30 31 31 30 30 30 30 31 31 31 31 32 31 31 30 29 29 29 29 29 28 27 26 26 27 28 28 27 27 27 26 25
19 19 19 18 18 18 18 18 19 19 20 20 21 21 21 21 21 20 20 20 20 21 22 22 23 23 23 23 24 24 25 25 26 27 27 27 27 27 27 27 27 28 29 29 28 28 29 29 30 31 31 30 30 32 32 31 31 31 31 31 31 32 32 33 33 33 32 31 31 30 30 29 28 26 25 23 23 24 26 27 27 27 27 27 26
17 18 18 19 19 19 18 18 18 18 19 19 20 20 20 20 21 22 21 21 20 20 20 21 21 22 22 23 23 23 23 24 25 27 27 27 26 26 27 27 27 27 28 29 28 28 28 28 30 31 31 30 31 32 32 30 30 31 31 31 31 31 31 32 32 32 32 32 32 32 31 30 27 25 24 23 24 25 27 27 28 28 28 28 28
18 18 18 18 19 19 18 18 18 18 19 20 20 20 19 20 21 21 21 21 21 21 20 20 20 20 21 21 20 21 21 23 24 25 26 26 25 25 26 26 26 26 27 28 28 28 27 28 29 30 30 29 30 31 31 30 30 31 31 31 31 31 31 31 31 31 31 32 32 32 32 31 30 28 28 28 29 30 32 32 31 31 31 30 29
18 18 18 18 18 18 18 18 18 18 18 19 20 19 19 19 19 19 19 19 20 21 21 21 21 22 22 22 21 21 21 22 23 24 26 26 25 25 25 26 26 26 27 28 28 28 28 28 28 29 29 29 28 29 30 31 31 31 31 31 31 31 31 30 30 30 30 30 30 31 30 30 30 30 30 30 30 31 32 32 32 32 32 31 30
17 17 17 18 18 17 17 16 16 15 15 16 17 17 17 17 18 19 19 20 21 21 21 22 23 24 24 24 24 23 22 22 23 24 26 27 26 25 25 26 26 27 27 28 28 28 28 28 29 30 29 27 26 27 28 30 30 30 30 30 30 30 30 30 30 30 30 29 29 29 29 29 29 29 29 30 29 29 29 30 31 31 31 30 29
16 16 16 15 15 15 15 16 16 16 16 16 17 18 18 18 19 20 20 21 22 22 22 22 23 23 23 24 24 24 23 23 23 24 26 27 26 25 25 26 26 27 27 28 28 28 28 28 29 30 30 28 26 26 27 28 28 29 29 29 29 29 29 29 28 28 29 28 28 28 28 27 27 28 28 28 28 27 27 28 28 28 28 28 27
Wind_Direction
251 252 254 256 260 261 259 257 254 253 255 257 255 252 251 251 246 248 254 256 255 255 257 259 261 262 259 251 246 246 248 247 243 241 241 242 245 248 249 250 250 250 252 253 253 253 252 253 253 255 258 261 263 265 266 266 268 271 273 274 274 274 274 273 273 275 277 279 282 287 290 290 290 290 289 287 285 283 283 285 289 296 300 303 305
248 253 254 252 258 263 262 261 256 253 254 256 256 255 255 252 247 247 253 255 255 254 254 254 256 259 258 253 247 244 245 246 242 240 242 243 245 247 249 251 252 253 253 253 254 255 256 255 254 256 259 261 263 264 265 266 267 269 271 271 273 275 276 274 275 276 275 274 274 276 279 283 286 287 286 284 281 280 282 285 286 289 293 298 302
247 252 252 249 255 260 260 262 261 257 255 256 257 257 257 254 250 246 247 248 248 250 252 250 249 252 255 256 254 249 246 246 243 240 240 243 246 248 249 251 253 254 254 255 256 257 259 259 259 260 261 262 262 263 265 266 267 269 270 270 270 272 275 278 281 283 283 284 284 283 280 281 285 287 286 285 287 291 298 300 298 297 300 300 301
249 250 249 247 251 255 257 261 261 257 256 256 255 256 258 258 255 251 246 244 245 248 250 249 245 245 250 256 259 256 250 247 245 243 242 245 249 250 250 252 254 257 258 258 259 259 260 262 263 262 261 261 261 262 264 266 268 269 269 268 268 269 272 274 277 279 282 285 285 285 284 283 284 286 286 287 290 293 298 300 299 304 309 307 301
250 247 244 241 243 254 262 263 258 252 251 251 250 252 256 257 254 249 245 244 248 249 251 256 257 252 247 251 254 255 252 247 245 245 244 246 247 249 251 252 254 255 256 257 258 257 256 257 260 262 262 261 262 262 263 264 265 266 266 267 269 270 272 274 277 279 280 281 280 281 282 284 285 286 286 287 288 290 294 296 298 305 309 304 298
248 242 236 232 235 247 260 263 257 250 247 250 254 254 250 246 242 238 239 246 253 252 252 262 272 268 257 256 256 254 253 249 247 246 245 246 248 250 252 254 256 258 259 261 262 261 258 256 254 255 257 260 261 261 262 264 264 264 265 267 269 271 273 275 278 280 281 282 283 283 284 285 286 287 286 285 286 288 292 295 299 303 304 300 296
243 237 233 235 236 243 260 270 273 276 272 262 258 256 253 251 243 234 235 249 258 258 258 264 273 273 265 264 264 262 259 255 253 251 249 250 252 254 255 255 256 259 262 264 265 266 267 264 259 253 251 254 259 261 263 265 267 267 268 270 272 274 276 278 279 281 283 285 286 286 286 287 288 290 289 288 288 290 292 295 297 300 300 298 297
241 247 262 276 273 274 286 289 285 287 284 267 254 254 260 260 249 234 231 246 256 261 263 264 266 267 265 265 267 267 265 262 261 259 256 255 256 257 259 261 261 261 262 263 264 266 268 267 266 262 255 251 255 262 266 269 270 271 272 275 277 279 280 282 283 284 285 285 286 287 288 289 291 292 291 290 291 292 293 293 295 297 296 296 296
269 288 302 300 286 285 295 292 280 277 278 270 262 261 262 255 241 230 231 246 258 266 269 268 267 266 267 269 269 267 265 264 264 264 261 260 259 260 261 263 265 265 265 265 264 263 263 264 267 270 268 261 256 258 260 264 270 273 275 277 279 280 281 281 283 285 286 286 286 286 287 288 290 291 291 290 291 291 290 291 293 294 294 293 295
294 298 300 294 284 283 287 284 278 277 275 267 261 261 259 245 230 229 239 251 263 273 276 276 273 269 269 272 270 267 265 263 262 262 262 261 261 261 262 262 263 263 264 265 263 260 260 263 265 268 270 268 265 264 262 261 266 271 273 275 278 280 281 281 282 284 286 286 286 286 286 287 288 290 290 289 285 283 284 287 289 289 290 292 295
288 288 288 286 281 279 279 275 272 271 264 254 252 251 244 228 222 230 243 249 257 270 278 282 281 276 274 274 270 266 265 264 263 264 264 263 263 264 264 264 263 262 262 262 261 258 257 258 259 262 265 268 271 276 276 271 268 269 270 272 276 279 281 283 284 285 286 286 286 284 285 287 289 291 290 288 286 285 284 283 285 288 290 292 294
283 282 281 278 274 276 281 263 248 247 228 227 242 241 224 215 219 229 237 241 255 271 280 284 282 277 274 272 268 265 265 263 262 261 261 263 266 268 269 269 268 268 267 266 265 263 261 261 264 268 272 275 276 277 277 274 271 272 272 273 276 278 280 282 284 286 288 287 285 285 286 287 289 289 287 286 290 293 292 287 286 287 289 293 296
280 275 271 271 273 285 290 188 182 186 180 203 220 210 200 204 214 226 236 248 262 269 271 272 272 276 282 283 281 277 270 264 262 262 263 264 266 269 273 275 275 276 276 275 276 275 273 274 278 277 275 274 275 275 277 276 273 273 273 274 275 277 279 280 282 284 284 284 285 287 289 287 286 287 288 292 296 296 295 295 295 291 289 292 296
255 256 251 260 252 205 145 147 158 160 163 180 183 178 190 211 229 245 254 262 266 266 265 266 271 282 291 293 293 291 286 283 282 278 274 273 274 276 277 279 280 280 279 281 283 286 287 285 282 278 275 273 272 274 278 278 274 274 274 273 272 273 276 278 279 280 280 282 285 288 289 288 289 290 292 297 301 299 297 300 301 299 298 294 290
257 265 262 251 217 166 138 136 144 157 176 196 204 211 226 239 248 256 260 263 266 266 268 270 275 284 288 289 292 294 294 294 293 286 280 278 279 280 280 282 284 284 284 286 289 293 295 292 286 281 279 276 273 273 274 273 271 270 270 270 272 275 279 281 282 282 283 286 289 290 291 291 292 294 294 295 298 299 299 301 301 299 299 295 287
231 263 292 217 162 135 127 130 131 142 183 207 216 226 235 240 247 253 255 257 262 267 274 277 280 285 288 290 294 295 295 296 294 287 278 276 278 281 283 284 284 285 287 288 290 293 294 293 290 286 280 276 276 275 271 268 267 267 270 275 280 283 285 286 285 285 287 289 291 293 294 292 292 295 296 296 298 299 299 301 299 295 292 288 284
153 142 134 141 145 129 126 134 134 141 172 192 202 217 236 248 254 257 260 263 269 275 280 283 286 290 291 292 297 298 296 297 296 289 282 281 285 286 287 286 286 287 290 291 293 296 295 291 287 283 281 280 279 278 275 272 273 275 279 283 285 287 287 286 286 287 289 291 292 292 292 292 293 295 295 296 298 298 297 298 296 294 292 289 285
136 127 123 126 130 125 121 129 131 132 137 136 125 215 266 267 266 267 271 275 279 284 287 291 295 298 296 296 298 296 293 295 297 296 294 294 293 291 290 291 291 292 293 295 296 297 294 291 291 290 290 289 286 283 281 281 282 284 287 287 287 287 286 286 286 288 290 292 293 294 294 294 296 296 296 296 297 299 301 300 298 297 300 299 295
128 121 118 119 121 118 115 121 123 122 122 114 62 354 297 277 272 274 281 285 291 297 300 301 303 308 307 303 297 289 288 293 298 297 296 294 293 292 292 292 293 293 292 292 294 293 290 291 296 298 297 296 293 290 288 287 288 289 289 288 288 289 289 289 290 290 292 294 296 298 299 299 301 302 302 303 304 305 306 304 301 300 301 302 300
118 116 119 121 121 118 115 114 113 111 110 105 92 91 79 343 278 281 292 297 301 303 302 301 303 306 306 300 293 290 292 294 294 292 291 291 292 293 293 293 293 292 290 289 290 291 292 294 296 296 294 294 294 292 292 291 290 289 289 289 290 292 292 293 294 295 297 298 299 300 301 302 305 305 305 306 308 307 305 302 300 299 299 299 298
116 112 115 116 115 114 107 100 99 98 95 96 94 88 75 55 26 330 301 290 290 293 294 297 298 297 297 297 295 297 298 294 291 289 289 290 291 293 294 295 295 294 292 292 291 290 292 294 293 292 291 292 294 295 295 295 294 294 294 294 295 296 297 298 299 300 301 302 302 302 302 303 304 305 305 307 307 306 305 302 300 300 300 301 300
118 110 105 103 103 103 98 90 85 80 79 79 73 65 53 28 357 343 326 312 313 311 306 307 308 306 307 307 304 305 305 297 292 292 292 293 293 293 295 296 297 297 295 294 292 291 293 292 291 291 293 295 297 298 298 298 297 297 298 299 300 301 302 302 302 302 302 301 301 301 301 301 302 302 302 303 302 303 304 304 304 304 303 303 302
118 110 101 93 88 83 75 65 54 45 42 40 36 33 22 10 360 354 349 339 333 330 324 323 321 316 315 315 313 315 317 305 293 290 290 292 292 293 295 296 295 293 292 290 288 289 290 290 288 288 290 292 294 295 296 296 297 297 298 299 300 300 300 300 300 300 300 300 300 301 301 300 300 299 299 299 300 303 306 307 308 307 306 305 304
110 104 94 82 70 59 50 44 34 27 23 18 15 13 6 7 9 3 355 347 338 334 332 329 326 320 317 316 315 316 319 315 305 300 298 297 295 294 294 294 293 290 287 285 282 281 282 284 284 283 284 285 286 286 288 290 293 294 294 295 296 297 298 297 297 298 298 299 299 298 298 298 298 298 297 298 299 303 306 309 310 310 310 309 307
98 93 83 68 55 43 36 29 19 15 14 8 7 6 356 356 2 356 350 346 341 337 333 329 324 318 314 312 312 312 313 312 312 312 312 310 307 303 298 295 292 290 288 285 283 281 280 280 281 281 281 281 282 283 285 287 289 290 290 291 294 296 297 296 297 298 299 298 297 296 296 297 297 296 297 297 299 302 306 310 313 314 315 314 312
81 69 58 39 19 13 15 10 359 355 359 358 358 355 344 343 348 345 342 340 335 330 327 322 318 314 312 312 312 312 311 311 313 313 312 311 310 307 303 299 294 290 288 286 285 284 283 283 283 283 283 283 283 285 286 287 288 289 290 292 294 295 296 296 296 298 298 298 297 296 296 296 295 295 295 296 297 301 305 309 311 314 316 317 316
20 19 22 359 344 350 359 355 347 342 338 339 345 346 338 337 339 337 335 333 328 323 319 314 310 308 307 307 308 308 307 308 309 309 308 306 304 300 298 297 294 292 290 288 287 286 284 283 282 282 282 284 286 288 289 290 290 291 291 292 292 292 292 291 291 293 296 297 297 297 296 295 295 295 295 295 296 299 302 305 309 313 316 317 317
313 332 342 334 331 337 342 342 344 338 326 324 335 340 332 329 332 332 330 326 323 319 313 309 307 303 300 303 306 304 301 303 304 304 304 303 302 299 297 295 294 293 293 292 292 292 290 288 286 285 285 286 287 289 289 290 290 290 291 293 293 293 292 289 288 289 290 290 292 295 297 296 295 295 295 295 296 297 299 303 307 312 315 318 319
286 304 310 311 314 321 324 325 329 327 317 317 323 323 319 320 324 325 323 319 316 312 307 306 304 299 299 303 303 299 300 303 303 302 302 302 300 298 297 296 296 296 296 296 296 297 296 294 293 291 290 289 289 289 290 291 292 294 297 300 302 301 298 295 295 295 292 288 289 293 294 295 296 297 296 296 297 298 299 301 305 309 313 316 318
259 290 299 294 291 304 314 314 312 309 305 302 297 296 302 309 312 314 314 313 312 309 305 302 300 298 300 303 301 298 301 304 304 304 305 304 302 300 299 298 298 297 297 298 299 299 300 299 298 297 296 296 296 297 297 297 298 301 304 306 305 302 301 302 304 304 302 298 296 295 295 296 297 299 299 300 301 301 301 301 303 307 311 314 316
251 270 278 276 278 288 296 299 302 300 294 290 289 293 298 301 304 307 308 308 309 307 303 300 297 296 297 298 298 298 300 302 304 306 307 306 306 305 303 302 301 299 299 299 299 298 298 298 298 298 299 299 300 300 299 299 301 303 305 306 305 301 301 304 304 301 301 301 299 297 296 296 296 298 299 301 302 301 301 302 304 306 310 313 316
258 264 267 269 275 281 282 285 290 288 283 285 290 297 300 301 301 303 304 304 304 303 302 300 297 295 295 296 296 297 299 301 303 305 306 307 307 307 307 307 306 306 306 306 304 302 300 297 296 296 297 298 299 300 301 302 304 305 306 307 306 304 303 304 303 300 300 300 297 295 296 296 296 297 298 299 300 300 300 301 303 305 307 310 314
269 273 272 268 271 275 277 280 282 281 281 285 291 295 298 299 300 300 301 301 302 301 300 299 297 296 296 296 296 296 298 299 300 301 303 304 305 307 309 309 310 311 312 312 312 310 307 303 301 300 300 300 300 301 303 304 303 303 304 305 305 304 303 304 303 302 301 300 298 296 297 297 297 297 297 297 298 299 298 299 301 303 305 308 312
283 282 277 271 273 279 282 285 285 285 286 289 291 294 295 295 296 298 298 299 299 300 299 298 297 297 296 296 297 299 300 300 300 300 301 303 304 305 307 308 309 310 312 312 314 313 310 307 304 303 304 303 303 303 304 303 302 302 302 302 301 302 303 304 303 302 303 303 300 299 298 298 297 296 296 297 297 297 297 298 301 305 307 309 312
291 287 285 283 285 288 289 290 290 290 290 291 291 292 293 292 293 295 295 295 296 297 296 295 295 296 296 296 298 300 302 303 302 302 303 303 304 304 305 306 308 308 309 310 311 311 310 307 305 304 305 305 306 306 306 305 305 305 305 305 305 305 305 305 304 303 303 303 302 301 301 302 300 298 295 295 296 296 296 296 299 306 311 312 313
289 288 289 291 292 291 290 290 291 292 293 292 291 290 291 292 292 292 291 291 293 293 293 293 294 295 297 298 298 299 300 301 301 302 303 303 304 304 305 306 306 308 309 311 311 310 309 307 306 307 309 310 310 310 309 308 308 307 307 309 310 310 309 308 307 305 305 306 307 308 309 307 305 302 297 295 296 299 301 302 302 303 307 309 309
285 288 291 292 292 291 290 290 291 292 292 291 290 290 292 292 292 292 291 290 292 293 292 291 292 294 296 298 299 299 298 297 298 300 300 299 301 303 303 302 303 305 307 307 307 306 305 302 302 304 306 307 306 305 304 303 303 303 305 306 307 307 307 308 308 308 310 312 312 312 312 310 309 308 305 302 302 302 303 305 305 304 305 306 305
286 289 290 288 288 288 289 290 290 290 289 288 288 289 291 291 292 292 291 291 292 293 292 291 292 294 296 296 296 297 298 298 298 298 297 296 298 300 301 301 302 302 301 301 300 300 299 298 298 300 301 301 300 299 299 297 297 298 300 300 299 300 301 302 302 302 306 310 311 311 312 312 313 313 311 310 308 306 302 300 301 302 304 305 305
288 290 289 287 286 287 288 289 288 286 286 286 286 287 290 291 291 291 290 291 292 293 292 292 293 295 297 297 297 297 298 297 296 295 296 297 297 297 298 299 300 299 299 299 299 298 296 297 298 299 299 299 298 298 297 295 294 295 295 296 297 298 299 299 297 296 297 300 302 303 306 308 310 311 311 310 310 310 307 303 301 300 301 302 304
289 289 287 285 285 285 287 287 287 286 286 286 288 290 290 290 290 291 291 292 293 292 291 291 292 294 297 299 299 298 297 296 295 295 295 297 296 296 296 297 297 297 297 297 296 295 294 295 296 297 296 296 296 296 296 295 294 294 295 295 296 297 297 297 297 296 295 295 295 296 298 300 302 303 305 307 307 307 306 305 302 300 300 300 300
288 287 285 284 284 285 286 286 287 289 290 292 293 293 291 289 289 289 290 292 293 292 291 290 290 292 294 296 296 295 295 295 295 295 295 295 295 296 297 297 297 296 295 295 295 294 293 295 296 295 295 293 292 292 292 291 291 291 292 292 293 292 292 293 293 293 292 291 291 291 293 294 295 296 298 299 299 298 298 299 300 300 299 298 298
286 284 283 283 283 284 286 288 290 292 293 294 294 293 290 289 289 289 289 291 291 290 290 289 289 289 290 291 291 292 292 293 294 294 294 294 294 294 295 295 295 294 293 294 294 293 293 294 294 294 293 292 291 290 290 290 289 290 290 291 291 291 291 291 291 290 289 288 287 288 289 290 291 292 295 297 297 296 296 298 299 299 298 298 299
285 285 284 284 286 288 291 292 293 294 295 295 294 293 292 292 291 290 291 291 290 288 288 289 291 293 293 292 292 291 292 293 293 293 293 294 294 294 294 293 293 292 293 293 293 293 293 293 293 293 293 292 291 291 290 289 288 288 289 289 290 290 290 290 289 289 288 287 287 287 287 288 289 291 294 296 297 297 297 297 297 298 299 300 300
284 286 287 289 291 293 293 294 295 295 295 295 295 294 293 293 293 293 294 295 293 292 291 293 295 296 296 297 297 296 295 296 296 295 295 295 294 295 295 294 294 293 293 293 293 293 294 294 294 294 294 294 293 292 290 289 289 288 288 288 288 288 288 288 289 288 288 288 288 288 288 288 288 290 293 295 296 296 296 296 296 298 300 299 299
286 289 291 292 293 294 295 295 296 296 295 296 297 296 295 294 295 295 297 297 297 297 297 298 298 298 298 299 299 299 298 298 298 297 296 296 296 296 296 295 295 294 294 294 294 294 295 295 295 295 295 295 295 293 291 291 291 291 290 289 288 287 287 288 288 288 289 289 288 288 288 288 288 288 290 291 291 289 288 289 292 295 296 297 297
291 294 295 295 294 295 296 297 297 297 297 297 298 298 298 298 298 297 296 296 296 297 297 298 298 298 298 299 298 298 299 298 297 296 296 296 297 297 296 295 295 295 294 294 294 294 295 295 294 293 293 294 293 292 292 293 293 292 291 290 289 289 289 289 289 289 289 289 288 287 288 288 288 288 287 284 282 281 283 286 289 291 292 292 293
296 297 298 298 298 299 300 299 298 298 298 297 297 299 301 302 301 300 300 300 299 298 297 298 298 299 299 299 299 299 298 297 296 296 297 297 299 299 298 298 298 297 296 296 296 296 296 295 294 293 293 293 293 292 293 293 292 291 290 289 289 288 288 289 289 289 289 288 288 288 288 288 286 283 279 276 275 278 283 286 288 288 288 286 285
300 300 301 301 301 302 303 303 302 301 300 299 300 302 303 302 302 304 306 307 306 306 306 306 305 304 303 304 304 303 302 300 300 300 300 301 302 303 302 302 301 300 299 298 298 297 296 295 294 293 293 294 294 295 295 294 292 291 291 291 290 290 289 289 289 289 288 288 288 288 288 288 285 282 279 277 277 279 281 283 284 284 283 282 282
302 303 302 302 302 301 302 302 302 302 301 301 302 305 307 307 307 308 310 309 308 309 311 311 309 309 309 308 307 307 306 305 304 303 302 302 304 305 304 302 302 300 299 298 298 297 297 295 293 292 292 294 295 295 294 294 293 292 292 292 292 292 292 291 291 290 290 289 289 288 288 288 287 286 284 283 282 281 281 281 281 281 280 280 280
302 302 303 303 303 303 304 304 304 304 304 304 305 308 310 310 310 311 311 310 309 311 312 311 310 310 310 310 309 308 307 306 305 303 301 302 304 304 302 300 300 299 298 298 298 298 298 296 294 293 293 295 295 294 292 291 292 292 292 292 292 292 292 291 291 291 291 290 290 289 288 288 287 287 286 285 284 283 282 281 281 281 281 280 278
301 302 303 304 306 308 310 311 311 311 310 309 309 311 313 313 312 312 312 311 311 311 311 310 309 309 309 308 308 307 307 306 304 301 300 301 303 302 301 300 299 299 299 299 299 299 298 298 297 297 297 298 297 295 293 292 292 291 291 292 292 292 291 291 291 291 291 291 290 290 289 289 288 287 286 285 285 285 284 282 282 282 282 281 279
Height
3183 3185 3186 3186 3186 3186 3187 3188 3189 3190 3190 3191 3192 3192 3192 3193 3194 3195 3195 3195 3196 3197 3197 3198 3198 3198 3198 3199 3200 3200 3201 3202 3203 3204 3205 3206 3207 3208 3209 3210 3211 3212 3213 3213 3214 3215 3215 3216 3216 3217 3217 3217 3218 3218 3219 3219 3219 3219 3220 3219 3219 3218 3218 3217 3216 3216 3217 3217 3217 3216 3215 3214 3214 3214 3213 3212 3211 3211 3210 3209 3209 3209 3210 3210 3210
3182 3182 3183 3183 3183 3183 3185 3187 3187 3188 3188 3189 3190 3190 3191 3191 3192 3193 3193 3194 3194 3195 3196 3196 3197 3196 3196 3196 3197 3198 3198 3199 3200 3201 3202 3204 3205 3206 3207 3208 3209 3209 3210 3211 3212 3212 3213 3213 3214 3214 3215 3215 3215 3216 3216 3217 3217 3217 3217 3217 3217 3216 3215 3213 3213 3213 3214 3215 3215 3214 3213 3212 3210 3211 3210 3208 3207 3208 3207 3206 3206 3206 3207 3207 3208
3178 3178 3179 3180 3181 3182 3183 3184 3185 3186 3187 3187 3188 3189 3190 3190 3190 3190 3192 3192 3193 3193 3194 3194 3195 3195 3195 3195 3195 3195 3196 3197 3198 3199 3201 3202 3203 3204 3205 3206 3206 3207 3208 3208 3209 3210 3211 3211 3211 3212 3212 3212 3213 3213 3214 3214 3214 3214 3215 3215 3214 3214 3212 3211 3210 3211 3211 3212 3212 3212 3211 3210 3209 3208 3207 3206 3205 3206 3207 3206 3205 3205 3205 3206 3206
3174 3174 3174 3175 3178 3180 3181 3183 3184 3184 3185 3187 3188 3188 3187 3188 3188 3188 3189 3190 3190 3191 3192 3192 3191 3192 3193 3193 3193 3194 3194 3195 3196 3197 3199 3200 3200 3201 3202 3203 3204 3204 3205 3206 3207 3207 3208 3208 3209 3209 3209 3210 3210 3211 3211 3211 3212 3212 3212 3212 3212 3211 3210 3208 3208 3208 3209 3209 3209 3209 3208 3208 3207 3206 3204 3204 3203 3204 3205 3205 3204 3205 3205 3204 3204
3169 3169 3169 3171 3174 3177 3179 3181 3181 3181 3182 3185 3186 3186 3185 3185 3185 3186 3187 3187 3187 3189 3190 3191 3191 3191 3191 3191 3191 3192 3192 3193 3194 3195 3196 3197 3197 3198 3199 3200 3201 3201 3202 3203 3203 3204 3204 3205 3205 3206 3207 3207 3207 3208 3208 3208 3209 3209 3209 3209 3209 3208 3208 3206 3205 3205 3206 3205 3206 3206 3205 3204 3205 3204 3202 3201 3201 3201 3201 3201 3201 3202 3202 3201 3201
3164 3165 3165 3166 3170 3174 3176 3177 3177 3178 3181 3183 3183 3183 3182 3180 3180 3181 3183 3185 3186 3188 3189 3190 3191 3191 3191 3190 3190 3190 3191 3191 3192 3193 3194 3194 3195 3196 3197 3197 3198 3199 3200 3201 3201 3201 3201 3201 3201 3202 3202 3203 3204 3204 3205 3205 3205 3206 3206 3206 3205 3205 3205 3204 3203 3203 3203 3202 3202 3202 3202 3202 3202 3201 3200 3198 3198 3198 3198 3197 3198 3198 3198 3198 3198
3163 3167 3168 3169 3172 3174 3174 3174 3175 3179 3182 3183 3182 3180 3179 3177 3177 3179 3181 3184 3186 3187 3187 3188 3188 3189 3189 3189 3189 3189 3189 3190 3190 3191 3192 3192 3193 3194 3194 3194 3195 3196 3198 3199 3199 3199 3199 3199 3199 3198 3198 3198 3200 3201 3202 3202 3203 3203 3203 3203 3202 3203 3202 3202 3202 3201 3201 3200 3200 3199 3199 3199 3199 3199 3198 3196 3195 3195 3194 3194 3194 3194 3195 3195 3194
3168 3173 3175 3174 3175 3175 3174 3173 3174 3176 3179 3180 3180 3179 3178 3178 3179 3180 3181 3183 3184 3185 3186 3186 3186 3186 3187 3187 3187 3187 3188 3188 3189 3189 3190 3191 3191 3191 3191 3192 3193 3194 3194 3195 3196 3196 3197 3197 3197 3198 3196 3194 3196 3199 3200 3200 3200 3200 3201 3200 3200 3200 3200 3199 3199 3199 3198 3198 3197 3196 3196 3195 3195 3195 3194 3193 3192 3192 3191 3190 3190 3190 3190 3190 3190
3172 3174 3174 3173 3172 3173 3173 3172 3172 3173 3174 3175 3177 3177 3177 3177 3179 3181 3181 3182 3183 3184 3184 3184 3184 3184 3184 3185 3185 3186 3186 3186 3187 3187 3188 3188 3188 3189 3189 3189 3190 3190 3191 3192 3192 3192 3193 3193 3193 3194 3194 3193 3193 3195 3196 3196 3197 3197 3197 3197 3197 3196 3196 3196 3195 3195 3194 3194 3193 3192 3191 3191 3191 3190 3189 3189 3189 3188 3187 3186 3186 3186 3184 3185 3186
3171 3171 3171 3170 3170 3171 3171 3170 3170 3171 3172 3173 3173 3175 3175 3176 3178 3179 3180 3180 3181 3182 3182 3182 3182 3182 3182 3182 3183 3183 3184 3184 3184 3185 3185 3185 3185 3185 3186 3186 3186 3187 3187 3188 3188 3188 3188 3189 3189 3189 3190 3191 3192 3193 3193 3193 3193 3193 3193 3193 3193 3192 3192 3192 3191 3191 3190 3189 3188 3188 3186 3186 3186 3185 3184 3184 3184 3184 3183 3182 3181 3180 3179 3181 3183
3168 3168 3168 3168 3167 3168 3168 3168 3168 3169 3171 3171 3172 3173 3173 3174 3176 3177 3178 3179 3180 3180 3180 3180 3180 3180 3180 3180 3180 3180 3181 3182 3182 3183 3183 3183 3182 3183 3183 3183 3183 3183 3183 3184 3184 3184 3184 3183 3184 3185 3187 3189 3191 3191 3191 3190 3189 3189 3189 3189 3189 3188 3188 3187 3186 3186 3185 3184 3183 3182 3181 3181 3181 3180 3179 3178 3178 3179 3180 3178 3176 3174 3174 3175 3177
3165 3166 3166 3166 3166 3166 3167 3167 3167 3167 3169 3170 3171 3171 3172 3173 3175 3176 3177 3178 3178 3179 3179 3179 3179 3179 3179 3179 3178 3179 3179 3180 3180 3181 3181 3181 3180 3180 3180 3180 3180 3180 3180 3180 3180 3181 3181 3181 3182 3185 3186 3187 3187 3187 3186 3186 3186 3186 3186 3186 3185 3185 3184 3182 3181 3180 3179 3178 3177 3177 3177 3175 3175 3174 3172 3171 3174 3176 3175 3172 3171 3170 3168 3169 3170
3164 3165 3165 3165 3166 3166 3166 3166 3166 3167 3168 3169 3170 3171 3171 3172 3174 3175 3176 3176 3177 3177 3177 3177 3177 3178 3178 3178 3178 3179 3178 3177 3177 3178 3179 3179 3179 3179 3179 3178 3178 3178 3178 3177 3178 3179 3180 3181 3182 3182 3182 3182 3182 3182 3182 3182 3183 3183 3183 3182 3182 3181 3180 3179 3177 3176 3174 3172 3171 3172 3172 3170 3169 3168 3166 3168 3171 3171 3168 3166 3164 3164 3164 3165 3166
3164 3164 3164 3164 3165 3165 3166 3166 3166 3167 3168 3169 3169 3170 3171 3172 3173 3174 3175 3175 3176 3176 3176 3176 3176 3177 3177 3177 3177 3178 3178 3176 3175 3176 3176 3177 3177 3177 3177 3177 3176 3176 3175 3175 3176 3177 3178 3179 3178 3178 3178 3178 3178 3178 3178 3179 3179 3180 3180 3179 3178 3176 3175 3175 3174 3172 3169 3167 3166 3168 3168 3166 3165 3165 3163 3165 3167 3165 3164 3163 3161 3159 3160 3161 3161
3163 3163 3163 3163 3164 3165 3165 3166 3166 3167 3168 3168 3169 3170 3171 3171 3172 3173 3174 3174 3174 3174 3175 3175 3175 3175 3176 3175 3175 3175 3176 3175 3174 3174 3175 3175 3175 3175 3175 3175 3175 3174 3174 3173 3174 3174 3174 3174 3174 3174 3174 3174 3174 3175 3175 3175 3176 3176 3176 3176 3174 3171 3170 3170 3170 3168 3166 3164 3163 3163 3164 3163 3162 3161 3159 3160 3161 3161 3162 3163 3160 3157 3156 3155 3154
3162 3162 3162 3163 3164 3164 3165 3166 3166 3166 3167 3168 3169 3169 3170 3171 3171 3172 3172 3173 3173 3173 3173 3174 3174 3174 3174 3174 3173 3173 3174 3173 3173 3172 3173 3173 3174 3174 3174 3174 3173 3172 3172 3172 3172 3172 3172 3171 3171 3171 3171 3171 3171 3172 3172 3172 3172 3172 3171 3171 3170 3168 3167 3168 3166 3165 3164 3162 3160 3160 3160 3159 3159 3158 3155 3155 3156 3156 3158 3159 3158 3155 3154 3152 3150
3161 3162 3162 3162 3163 3164 3164 3165 3166 3166 3167 3168 3168 3169 3169 3170 3170 3171 3171 3172 3172 3172 3172 3172 3172 3172 3172 3172 3172 3172 3172 3172 3171 3171 3171 3171 3172 3172 3172 3172 3171 3170 3170 3170 3170 3170 3169 3169 3169 3169 3168 3168 3168 3168 3168 3168 3168 3167 3167 3166 3166 3166 3165 3165 3164 3162 3161 3160 3158 3158 3156 3155 3155 3154 3152 3152 3153 3152 3152 3153 3152 3150 3150 3148 3146
3161 3162 3162 3162 3163 3164 3164 3165 3166 3166 3167 3168 3168 3169 3169 3169 3169 3170 3170 3170 3170 3170 3171 3171 3171 3171 3171 3170 3170 3170 3170 3170 3169 3169 3170 3170 3170 3170 3170 3169 3169 3168 3168 3167 3167 3167 3167 3166 3166 3166 3165 3165 3165 3165 3165 3164 3164 3163 3163 3163 3163 3163 3162 3162 3161 3160 3158 3157 3156 3155 3154 3152 3151 3151 3150 3149 3150 3149 3148 3147 3146 3145 3145 3144 3142
3161 3162 3163 3163 3163 3164 3165 3165 3166 3167 3167 3167 3168 3168 3168 3169 3169 3169 3169 3169 3169 3169 3169 3169 3170 3170 3169 3169 3168 3168 3168 3168 3168 3168 3168 3168 3168 3167 3167 3167 3166 3166 3165 3165 3165 3165 3164 3163 3163 3163 3163 3162 3162 3162 3161 3161 3161 3160 3160 3160 3160 3160 3159 3158 3157 3157 3156 3155 3154 3152 3151 3150 3149 3148 3147 3147 3147 3147 3146 3144 3143 3142 3142 3141 3140
3162 3163 3163 3164 3164 3165 3165 3166 3166 3167 3167 3167 3167 3168 3168 3168 3168 3168 3169 3169 3168 3168 3168 3168 3169 3169 3169 3168 3167 3166 3166 3167 3166 3166 3166 3165 3165 3165 3164 3164 3164 3163 3163 3163 3162 3162 3162 3161 3161 3161 3160 3160 3160 3159 3159 3159 3159 3158 3158 3158 3157 3157 3156 3156 3155 3154 3153 3152 3151 3150 3149 3148 3146 3145 3144 3144 3144 3145 3144 3143 3141 3140 3139 3138 3137
3162 3163 3164 3165 3165 3166 3166 3166 3167 3167 3167 3168 3168 3167 3167 3168 3167 3168 3168 3168 3167 3167 3166 3167 3167 3167 3167 3166 3166 3165 3166 3165 3164 3164 3163 3163 3163 3162 3162 3162 3161 3161 3161 3161 3160 3160 3160 3160 3159 3158 3158 3158 3157 3157 3157 3157 3156 3156 3155 3155 3154 3154 3153 3153 3152 3151 3150 3149 3148 3147 3146 3145 3144 3143 3142 3141 3141 3140 3140 3139 3138 3137 3136 3135 3133
3164 3164 3165 3166 3167 3167 3167 3168 3168 3168 3168 3168 3168 3168 3167 3167 3167 3167 3167 3167 3167 3167 3166 3166 3165 3165 3165 3165 3164 3164 3164 3164 3163 3162 3161 3161 3160 3160 3159 3159 3159 3159 3159 3158 3158 3157 3158 3158 3158 3156 3156 3155 3155 3155 3155 3155 3154 3154 3153 3152 3152 3151 3150 3149 3149 3148 3147 3146 3145 3144 3143 3142 3142 3141 3140 3139 3138 3137 3136 3136 3135 3134 3133 3132 3130
3166 3166 3167 3167 3168 3168 3169 3169 3169 3169 3168 3168 3168 3168 3168 3168 3167 3167 3167 3167 3166 3166 3166 3165 3165 3164 3164 3163 3163 3163 3163 3163 3161 3160 3160 3159 3159 3158 3157 3157 3157 3157 3157 3157 3156 3156 3156 3156 3156 3155 3155 3154 3154 3153 3153 3153 3152 3151 3151 3150 3149 3149 3148 3147 3146 3145 3144 3143 3142 3141 3140 3140 3139 3138 3138 3137 3136 3135 3134 3133 3132 3131 3130 3129 3128
3168 3168 3168 3169 3169 3169 3169 3169 3169 3169 3168 3168 3168 3168 3167 3167 3167 3167 3167 3166 3166 3165 3165 3165 3164 3164 3163 3163 3162 3161 3162 3161 3160 3159 3159 3158 3157 3156 3156 3155 3155 3155 3155 3154 3154 3154 3154 3154 3154 3154 3153 3153 3153 3152 3152 3151 3150 3149 3148 3148 3147 3146 3145 3144 3143 3142 3141 3140 3139 3138 3137 3137 3136 3135 3135 3134 3133 3133 3132 3131 3130 3129 3128 3126 3125
3168 3168 3169 3169 3169 3169 3169 3169 3169 3168 3168 3168 3167 3167 3167 3167 3166 3166 3166 3165 3165 3164 3164 3163 3163 3162 3162 3161 3161 3160 3159 3159 3159 3158 3157 3156 3155 3155 3154 3154 3153 3153 3152 3152 3152 3152 3152 3151 3151 3151 3151 3151 3150 3150 3150 3149 3148 3147 3145 3145 3144 3143 3142 3140 3140 3139 3138 3137 3136 3135 3134 3133 3133 3132 3131 3131 3130 3129 3128 3127 3126 3125 3124 3123 3121
3167 3168 3169 3169 3168 3169 3169 3169 3169 3168 3168 3168 3167 3167 3167 3166 3166 3166 3165 3165 3164 3163 3162 3162 3161 3161 3160 3159 3159 3158 3156 3156 3156 3156 3155 3154 3154 3153 3152 3152 3151 3151 3150 3150 3149 3149 3149 3149 3148 3148 3147 3147 3147 3147 3146 3145 3144 3143 3142 3141 3141 3139 3138 3137 3136 3136 3135 3133 3132 3132 3131 3130 3129 3129 3128 3127 3126 3125 3125 3124 3123 3122 3121 3120 3118
3167 3168 3169 3168 3168 3169 3169 3169 3169 3168 3168 3168 3168 3167 3166 3166 3166 3165 3165 3165 3163 3162 3161 3160 3160 3159 3158 3158 3157 3156 3155 3154 3154 3153 3153 3152 3151 3151 3150 3149 3149 3148 3148 3147 3147 3146 3146 3146 3145 3145 3144 3143 3143 3142 3141 3140 3139 3138 3138 3137 3137 3136 3135 3133 3133 3133 3132 3130 3129 3128 3128 3127 3126 3125 3124 3124 3123 3122 3121 3120 3119 3118 3117 3116 3115
3167 3168 3168 3168 3168 3168 3169 3169 3169 3168 3167 3167 3167 3166 3166 3165 3165 3165 3164 3163 3162 3161 3160 3159 3159 3158 3157 3157 3156 3155 3154 3153 3153 3152 3151 3150 3149 3148 3148 3147 3146 3146 3145 3145 3144 3144 3143 3143 3142 3142 3141 3140 3140 3139 3137 3136 3135 3134 3134 3133 3133 3132 3130 3129 3129 3130 3130 3128 3126 3125 3124 3124 3123 3122 3121 3120 3119 3118 3117 3116 3115 3114 3113 3112 3110
3167 3167 3167 3167 3167 3167 3167 3167 3168 3168 3167 3166 3166 3165 3165 3164 3164 3164 3163 3162 3161 3161 3159 3158 3158 3156 3155 3156 3155 3153 3152 3152 3151 3150 3149 3148 3147 3146 3146 3145 3144 3144 3143 3142 3142 3141 3141 3140 3139 3138 3138 3137 3136 3135 3134 3132 3131 3130 3130 3129 3128 3127 3125 3124 3124 3125 3125 3124 3122 3121 3120 3120 3119 3118 3117 3116 3115 3114 3113 3112 3111 3110 3109 3107 3106
3167 3167 3166 3166 3166 3167 3167 3166 3166 3167 3167 3166 3166 3166 3165 3164 3163 3163 3162 3161 3160 3159 3158 3157 3157 3155 3154 3154 3153 3152 3150 3150 3149 3148 3147 3146 3145 3144 3144 3143 3142 3141 3141 3140 3140 3139 3138 3137 3136 3135 3135 3134 3133 3132 3131 3129 3128 3127 3127 3126 3125 3123 3120 3120 3119 3118 3118 3119 3118 3117 3116 3116 3115 3115 3114 3113 3112 3111 3109 3109 3108 3107 3105 3104 3102
3167 3167 3166 3165 3165 3166 3166 3166 3165 3165 3165 3165 3165 3165 3164 3163 3163 3162 3161 3160 3159 3158 3157 3156 3155 3154 3152 3152 3151 3149 3149 3148 3147 3146 3145 3144 3143 3142 3141 3141 3140 3139 3139 3138 3137 3136 3135 3134 3133 3132 3132 3131 3130 3129 3128 3127 3126 3125 3124 3124 3123 3121 3119 3118 3117 3115 3115 3115 3114 3113 3113 3112 3112 3111 3110 3110 3109 3107 3106 3105 3104 3103 3102 3100 3098
3164 3165 3165 3165 3164 3164 3164 3164 3164 3164 3163 3163 3163 3163 3162 3162 3161 3160 3159 3158 3157 3156 3155 3154 3153 3152 3150 3150 3148 3147 3147 3146 3145 3144 3143 3142 3141 3140 3139 3138 3137 3136 3136 3135 3134 3133 3133 3132 3131 3130 3129 3128 3127 3126 3125 3124 3123 3122 3121 3121 3120 3119 3117 3117 3116 3114 3113 3113 3112 3111 3110 3109 3108 3107 3106 3105 3105 3104 3102 3101 3100 3099 3098 3097 3096
3163 3164 3164 3164 3163 3163 3163 3162 3162 3162 3162 3162 3161 3161 3160 3159 3158 3158 3157 3156 3155 3154 3153 3152 3151 3149 3148 3147 3146 3145 3144 3144 3143 3142 3141 3140 3139 3137 3136 3135 3134 3133 3132 3132 3131 3130 3129 3128 3128 3127 3126 3125 3124 3123 3122 3121 3120 3119 3118 3118 3117 3115 3114 3114 3113 3112 3111 3110 3109 3107 3106 3106 3105 3104 3102 3101 3101 3100 3099 3098 3096 3095 3095 3094 3093
3163 3163 3163 3163 3162 3162 3162 3162 3161 3161 3161 3160 3159 3159 3158 3157 3156 3155 3154 3153 3152 3151 3150 3149 3148 3147 3146 3145 3144 3143 3142 3141 3140 3139 3138 3137 3136 3135 3134 3132 3131 3130 3130 3129 3128 3127 3126 3125 3125 3124 3123 3122 3121 3120 3119 3118 3117 3116 3115 3114 3113 3112 3111 3110 3109 3108 3107 3107 3105 3104 3103 3102 3101 3100 3099 3098 3097 3096 3096 3095 3093 3092 3091 3090 3089
3163 3163 3162 3162 3161 3161 3161 3160 3160 3160 3159 3158 3157 3156 3156 3155 3154 3153 3151 3150 3149 3149 3148 3146 3145 3144 3143 3143 3142 3141 3139 3138 3137 3136 3135 3135 3134 3133 3132 3130 3129 3128 3127 3126 3125 3124 3123 3122 3122 3121 3120 3119 3118 3117 3116 3115 3114 3113 3112 3111 3110 3109 3108 3107 3106 3104 3103 3103 3102 3100 3100 3099 3098 3097 3096 3095 3094 3093 3092 3091 3091 3089 3088 3087 3086
3162 3162 3161 3161 3160 3160 3159 3159 3158 3158 3157 3156 3155 3154 3153 3152 3151 3150 3149 3147 3146 3146 3146 3144 3142 3142 3141 3140 3139 3138 3137 3136 3135 3134 3133 3132 3131 3130 3130 3129 3127 3126 3125 3124 3123 3122 3121 3120 3119 3118 3117 3116 3115 3114 3113 3112 3111 3110 3109 3108 3107 3106 3105 3105 3103 3102 3101 3100 3099 3098 3097 3096 3095 3094 3093 3092 3091 3090 3089 3088 3087 3086 3085 3084 3082
3161 3161 3160 3160 3159 3158 3158 3157 3156 3155 3154 3153 3152 3151 3150 3149 3148 3147 3145 3144 3143 3143 3143 3142 3140 3139 3138 3138 3137 3135 3134 3133 3132 3131 3131 3130 3129 3128 3127 3126 3125 3124 3123 3122 3121 3119 3118 3117 3116 3116 3115 3114 3113 3112 3111 3110 3109 3108 3107 3106 3105 3104 3103 3102 3101 3100 3099 3098 3097 3096 3095 3093 3092 3092 3091 3090 3089 3088 3087 3085 3083 3082 3082 3081 3079
3159 3159 3159 3158 3157 3157 3156 3155 3154 3153 3152 3150 3149 3148 3147 3147 3145 3144 3142 3141 3140 3140 3140 3139 3138 3136 3136 3135 3134 3133 3132 3130 3130 3129 3128 3128 3127 3126 3125 3124 3123 3123 3122 3120 3119 3117 3116 3115 3114 3114 3113 3112 3111 3110 3109 3108 3107 3107 3106 3104 3103 3102 3101 3100 3099 3098 3097 3096 3095 3094 3093 3092 3090 3089 3089 3088 3087 3086 3085 3084 3082 3080 3079 3078 3076
3157 3157 3157 3156 3155 3154 3153 3153 3151 3150 3149 3148 3147 3146 3145 3144 3143 3141 3140 3139 3138 3137 3137 3136 3135 3134 3134 3133 3132 3131 3129 3128 3128 3127 3126 3125 3124 3123 3123 3122 3121 3120 3119 3118 3117 3116 3114 3113 3112 3111 3111 3110 3108 3107 3106 3105 3105 3104 3103 3101 3101 3100 3099 3098 3097 3095 3094 3093 3092 3091 3091 3090 3088 3087 3086 3085 3084 3083 3082 3082 3080 3079 3077 3075 3073
3155 3155 3155 3154 3153 3152 3151 3150 3149 3147 3146 3145 3144 3143 3143 3141 3140 3139 3137 3137 3136 3135 3134 3133 3133 3132 3131 3130 3129 3128 3127 3126 3125 3124 3123 3122 3121 3120 3120 3119 3119 3118 3117 3116 3115 3113 3111 3111 3110 3109 3108 3107 3106 3104 3103 3103 3102 3101 3100 3099 3098 3097 3096 3095 3094 3093 3092 3090 3089 3088 3087 3087 3086 3085 3084 3083 3082 3081 3080 3079 3078 3077 3075 3074 3073
3153 3153 3152 3152 3151 3150 3149 3147 3146 3145 3144 3143 3142 3141 3140 3138 3138 3136 3135 3134 3134 3132 3131 3131 3131 3130 3129 3128 3126 3125 3124 3123 3122 3121 3120 3119 3118 3117 3117 3116 3115 3114 3113 3113 3112 3110 3108 3107 3107 3106 3105 3104 3103 3101 3100 3100 3099 3097 3096 3096 3095 3093 3092 3091 3091 3090 3089 3088 3087 3085 3084 3083 3082 3082 3082 3080 3079 3078 3077 3076 3074 3073 3072 3071 3070
3150 3150 3150 3149 3148 3147 3146 3145 3143 3142 3141 3140 3139 3138 3137 3136 3135 3134 3133 3132 3132 3130 3129 3128 3128 3128 3127 3126 3124 3123 3121 3120 3120 3118 3117 3116 3115 3115 3114 3113 3112 3110 3109 3109 3108 3107 3105 3104 3103 3102 3101 3100 3099 3098 3097 3096 3095 3094 3093 3092 3091 3090 3089 3088 3087 3086 3085 3084 3084 3083 3081 3080 3079 3078 3078 3077 3075 3074 3073 3072 3071 3070 3069 3067 3066
3147 3147 3147 3146 3145 3144 3143 3142 3140 3139 3138 3137 3136 3135 3134 3133 3132 3131 3130 3130 3129 3128 3126 3125 3124 3124 3123 3123 3122 3120 3118 3117 3116 3115 3114 3113 3112 3111 3111 3110 3108 3107 3106 3105 3105 3103 3102 3101 3100 3099 3098 3097 3096 3095 3093 3092 3091 3090 3089 3088 3087 3085 3084 3084 3083 3082 3081 3081 3080 3079 3078 3077 3075 3074 3073 3073 3071 3070 3069 3068 3067 3066 3065 3064 3064
3145 3144 3144 3143 3143 3142 3141 3139 3138 3137 3135 3135 3134 3133 3132 3131 3130 3128 3128 3127 3126 3125 3124 3123 3122 3121 3120 3119 3118 3117 3116 3114 3113 3112 3111 3110 3109 3108 3107 3106 3105 3103 3102 3101 3101 3099 3098 3097 3096 3095 3094 3093 3092 3090 3089 3088 3087 3086 3085 3084 3083 3081 3080 3079 3078 3078 3077 3076 3076 3075 3074 3073 3072 3071 3070 3069 3068 3066 3065 3064 3063 3062 3062 3061 3061
3142 3142 3142 3141 3140 3139 3138 3137 3136 3134 3133 3132 3131 3130 3129 3128 3127 3126 3125 3124 3123 3122 3121 3120 3119 3118 3117 3116 3115 3114 3112 3111 3109 3108 3107 3106 3105 3105 3104 3103 3101 3100 3099 3098 3097 3096 3095 3093 3092 3091 3089 3088 3087 3085 3084 3083 3082 3081 3080 3079 3078 3077 3076 3075 3074 3073 3072 3072 3071 3070 3070 3069 3068 3067 3066 3065 3064 3063 3062 3061 3060 3059 3058 3058 3057
3140 3139 3139 3139 3138 3137 3136 3134 3133 3132 3130 3129 3128 3127 3126 3125 3124 3124 3123 3122 3121 3120 3118 3117 3116 3115 3114 3113 3112 3111 3110 3108 3106 3105 3104 3103 3102 3101 3100 3099 3098 3096 3095 3094 3093 3092 3091 3090 3088 3086 3085 3084 3083 3081 3080 3079 3078 3077 3076 3075 3074 3072 3071 3070 3069 3068 3067 3067 3066 3065 3065 3064 3063 3062 3062 3061 3060 3059 3058 3058 3057 3056 3055 3054 3054
3138 3137 3136 3135 3134 3134 3133 3132 3130 3129 3128 3126 3125 3124 3123 3122 3121 3120 3119 3119 3118 3117 3116 3114 3113 3112 3111 3110 3109 3108 3107 3105 3103 3102 3100 3100 3099 3098 3096 3095 3094 3093 3091 3090 3089 3088 3087 3086 3084 3082 3082 3081 3078 3077 3076 3076 3074 3072 3071 3070 3069 3068 3067 3066 3065 3064 3062 3062 3061 3060 3059 3059 3059 3058 3057 3057 3056 3055 3054 3054 3053 3052 3052 3051 3050
3135 3134 3134 3133 3132 3131 3130 3129 3128 3127 3125 3123 3122 3122 3121 3120 3118 3117 3116 3115 3114 3113 3112 3111 3110 3109 3108 3107 3106 3105 3103 3102 3100 3099 3097 3096 3095 3095 3093 3091 3091 3089 3087 3086 3085 3084 3083 3082 3080 3078 3077 3077 3075 3074 3072 3071 3069 3068 3067 3066 3065 3064 3062 3061 3060 3059 3058 3057 3056 3055 3055 3054 3053 3053 3053 3052 3051 3050 3049 3049 3048 3048 3047 3047 3046
3132 3132 3131 3130 3129 3128 3127 3126 3125 3124 3123 3121 3120 3119 3118 3117 3115 3115 3114 3112 3111 3110 3109 3108 3107 3106 3105 3104 3103 3102 3101 3099 3097 3095 3093 3092 3092 3091 3089 3088 3087 3086 3084 3082 3081 3080 3079 3078 3076 3074 3074 3073 3072 3071 3069 3067 3065 3064 3063 3062 3060 3059 3058 3057 3056 3055 3054 3053 3052 3051 3050 3049 3049 3048 3047 3047 3046 3045 3044 3043 3043 3042 3042 3042 3042
3130 3129 3128 3128 3127 3126 3125 3124 3123 3122 3121 3119 3118 3117 3116 3115 3113 3112 3111 3110 3109 3108 3107 3105 3104 3103 3101 3100 3099 3099 3098 3096 3094 3092 3090 3089 3089 3088 3086 3085 3083 3082 3081 3079 3078 3077 3075 3074 3072 3070 3070 3070 3069 3067 3065 3063 3062 3060 3059 3058 3057 3055 3054 3053 3052 3051 3050 3049 3048 3047 3046 3045 3044 3043 3043 3042 3041 3041 3040 3039 3038 3037 3036 3036 3036
3128 3127 3126 3125 3124 3123 3123 3122 3121 3120 3119 3117 3116 3115 3114 3113 3111 3110 3109 3107 3106 3105 3104 3103 3101 3100 3099 3097 3096 3095 3094 3094 3092 3090 3088 3086 3086 3085 3083 3081 3080 3079 3077 3076 3074 3073 3072 3070 3068 3066 3065 3065 3064 3063 3061 3059 3058 3057 3055 3054 3053 3052 3051 3049 3048 3047 3046 3045 3044 3043 3042 3041 3040 3039 3038 3037 3037 3036 3035 3034 3033 3032 3031 3031 3031